| time (UTC) | temp F | wind direction | speed MPH | gust MPH | rain 1hr in | rain 24hr in | rain mn in | humidity % | barometer mb |
| 20260906220039 | 76 | 236 | 8.0 | 18.0 | 0.00 | 0.00 | 0.00 | 49 | 1009.4 |
| 20260906215538 | 76 | 257 | 8.0 | 19.0 | 0.00 | 0.00 | 0.00 | 49 | 1009.4 |
| 20260906215034 | 75 | 224 | 5.0 | 19.0 | 0.00 | 0.00 | 0.00 | 50 | 1009.3 |
| 20260906214541 | 75 | 217 | 6.0 | 14.0 | 0.00 | 0.00 | 0.00 | 51 | 1009.2 |
| 20260906214034 | 75 | 199 | 6.0 | 15.0 | 0.00 | 0.00 | 0.00 | 53 | 1008.9 |
| 20260906213532 | 76 | 227 | 7.0 | 15.0 | 0.00 | 0.00 | 0.00 | 51 | 1008.9 |
| 20260906213031 | 76 | 202 | 6.0 | 10.0 | 0.00 | 0.00 | 0.00 | 50 | 1009.0 |
| 20260906212530 | 76 | 191 | 5.0 | 11.0 | 0.00 | 0.00 | 0.00 | 50 | 1008.9 |
| 20260906212032 | 76 | 193 | 3.0 | 10.0 | 0.00 | 0.00 | 0.00 | 50 | 1009.2 |
| 20260906211530 | 76 | 216 | 3.0 | 10.0 | 0.00 | 0.00 | 0.00 | 51 | 1009.3 |
| 20260906211029 | 76 | 255 | 4.0 | 10.0 | 0.00 | 0.00 | 0.00 | 51 | 1009.4 |
| 20260906210533 | 76 | 202 | 3.0 | 12.0 | 0.00 | 0.00 | 0.00 | 52 | 1009.4 |
| 20260906210028 | 76 | 256 | 4.0 | 8.0 | 0.00 | 0.00 | 0.00 | 49 | 1009.3 |
| 20260906205527 | 76 | 217 | 2.0 | 8.0 | 0.00 | 0.00 | 0.00 | 48 | 1009.1 |
| 20260906205026 | 76 | 243 | 2.0 | 9.0 | 0.00 | 0.00 | 0.00 | 48 | 1009.2 |
| 20260906204526 | 77 | 240 | 1.0 | 8.0 | 0.00 | 0.00 | 0.00 | 48 | 1009.4 |
| 20260906204025 | 77 | 209 | 3.0 | 11.0 | 0.00 | 0.00 | 0.00 | 47 | 1009.2 |
| 20260906203525 | 77 | 238 | 4.0 | 11.0 | 0.00 | 0.00 | 0.00 | 47 | 1008.8 |
| 20260906203025 | 77 | 196 | 3.0 | 12.0 | 0.00 | 0.00 | 0.00 | 48 | 1009.0 |
| 20260906202527 | 77 | 213 | 3.0 | 9.0 | 0.00 | 0.00 | 0.00 | 48 | 1009.1 |
| 20260906202024 | 77 | 244 | 3.0 | 10.0 | 0.00 | 0.00 | 0.00 | 48 | 1008.8 |
| 20260906201523 | 77 | 189 | 5.0 | 10.0 | 0.00 | 0.00 | 0.00 | 48 | 1008.5 |
| 20260906201023 | 77 | 213 | 4.0 | 14.0 | 0.00 | 0.00 | 0.00 | 48 | 1008.7 |
| 20260906200521 | 78 | 202 | 4.0 | 14.0 | 0.00 | 0.00 | 0.00 | 47 | 1008.7 |
| 20260906200022 | 78 | 217 | 4.0 | 12.0 | 0.00 | 0.00 | 0.00 | 47 | 1008.7 |
| 20260906195521 | 78 | 209 | 5.0 | 12.0 | 0.00 | 0.00 | 0.00 | 48 | 1009.0 |
| 20260906195021 | 78 | 242 | 4.0 | 12.0 | 0.00 | 0.00 | 0.00 | 49 | 1008.9 |
| 20260906194520 | 78 | 250 | 3.0 | 12.0 | 0.00 | 0.00 | 0.00 | 49 | 1009.1 |
| 20260906194020 | 78 | 247 | 5.0 | 13.0 | 0.00 | 0.00 | 0.00 | 49 | 1009.3 |
| 20260906193519 | 78 | 242 | 5.0 | 13.0 | 0.00 | 0.00 | 0.00 | 49 | 1009.3 |
| 20260906193019 | 78 | 212 | 3.0 | 11.0 | 0.00 | 0.00 | 0.00 | 50 | 1008.9 |
| 20260906192517 | 78 | 249 | 5.0 | 12.0 | 0.00 | 0.00 | 0.00 | 50 | 1008.8 |
| 20260906192018 | 78 | 212 | 6.0 | 12.0 | 0.00 | 0.00 | 0.00 | 50 | 1008.6 |
| 20260906191516 | 78 | 223 | 6.0 | 12.0 | 0.00 | 0.00 | 0.00 | 48 | 1008.5 |
| 20260906191016 | 78 | 254 | 4.0 | 10.0 | 0.00 | 0.00 | 0.00 | 48 | 1008.9 |
| 20260906190516 | 79 | 225 | 3.0 | 11.0 | 0.00 | 0.00 | 0.00 | 48 | 1009.0 |
| 20260906190015 | 78 | 213 | 5.0 | 11.0 | 0.00 | 0.00 | 0.00 | 46 | 1008.9 |
| 20260906185518 | 78 | 205 | 3.0 | 8.0 | 0.00 | 0.00 | 0.00 | 46 | 1008.9 |
| 20260906185015 | 78 | 249 | 2.0 | 8.0 | 0.00 | 0.00 | 0.00 | 47 | 1008.8 |
| 20260906184514 | 78 | 198 | 2.0 | 11.0 | 0.00 | 0.00 | 0.00 | 47 | 1009.0 |
| 20260906184013 | 78 | 211 | 5.0 | 11.0 | 0.00 | 0.00 | 0.00 | 47 | 1008.8 |
| 20260906183512 | 78 | 213 | 3.0 | 8.0 | 0.00 | 0.00 | 0.00 | 47 | 1008.8 |
| 20260906183024 | 77 | 223 | 3.0 | 10.0 | 0.00 | 0.00 | 0.00 | 47 | 1008.5 |
| 20260906182513 | 78 | 209 | 5.0 | 11.0 | 0.00 | 0.00 | 0.00 | 47 | 1008.5 |
| 20260906182016 | 78 | 234 | 4.0 | 12.0 | 0.00 | 0.00 | 0.00 | 47 | 1008.7 |
| 20260906181535 | 78 | 235 | 2.0 | 9.0 | 0.00 | 0.00 | 0.00 | 47 | 1008.7 |
| 20260906181011 | 78 | 186 | 3.0 | 10.0 | 0.00 | 0.00 | 0.00 | 47 | 1008.6 |
| 20260906180514 | 78 | 207 | 4.0 | 14.0 | 0.00 | 0.00 | 0.00 | 47 | 1008.5 |
| 20260906180010 | 77 | 240 | 5.0 | 14.0 | 0.00 | 0.00 | 0.00 | 47 | 1008.6 |
| 20260906175509 | 77 | 269 | 6.0 | 10.0 | 0.00 | 0.00 | 0.00 | 47 | 1008.5 |
| 20260906175011 | 77 | 222 | 6.0 | 10.0 | 0.00 | 0.00 | 0.00 | 47 | 1008.6 |
| 20260906174511 | 78 | 202 | 5.0 | 13.0 | 0.00 | 0.00 | 0.00 | 46 | 1008.5 |
| 20260906174008 | 78 | 223 | 4.0 | 12.0 | 0.00 | 0.00 | 0.00 | 46 | 1008.6 |
| 20260906173507 | 78 | 244 | 5.0 | 12.0 | 0.00 | 0.00 | 0.00 | 46 | 1008.5 |
| 20260906173006 | 78 | 228 | 6.0 | 12.0 | 0.00 | 0.00 | 0.00 | 45 | 1008.5 |
| 20260906172504 | 78 | 209 | 6.0 | 12.0 | 0.00 | 0.00 | 0.00 | 45 | 1008.5 |
| 20260906172005 | 78 | 223 | 5.0 | 14.0 | 0.00 | 0.00 | 0.00 | 44 | 1008.5 |
| 20260906171505 | 78 | 236 | 5.0 | 14.0 | 0.00 | 0.00 | 0.00 | 44 | 1008.6 |
| 20260906171005 | 78 | 239 | 5.0 | 13.0 | 0.00 | 0.00 | 0.00 | 44 | 1008.4 |
| 20260906170504 | 78 | 212 | 5.0 | 15.0 | 0.00 | 0.00 | 0.00 | 44 | 1008.5 |
| 20260906170004 | 78 | 242 | 6.0 | 15.0 | 0.00 | 0.00 | 0.00 | 43 | 1008.5 |
| 20260906165502 | 78 | 240 | 4.0 | 11.0 | 0.00 | 0.00 | 0.00 | 41 | 1008.6 |
| 20260906165001 | 78 | 230 | 4.0 | 10.0 | 0.00 | 0.00 | 0.00 | 40 | 1008.6 |
| 20260906164501 | 78 | 213 | 3.0 | 10.0 | 0.00 | 0.00 | 0.00 | 40 | 1008.5 |
| 20260906164101 | 78 | 213 | 4.0 | 10.0 | 0.00 | 0.00 | 0.00 | 39 | 1008.5 |
| 20260906163601 | 79 | 247 | 4.0 | 12.0 | 0.00 | 0.00 | 0.00 | 39 | 1008.4 |
| 20260906163104 | 79 | 219 | 6.0 | 12.0 | 0.00 | 0.00 | 0.00 | 39 | 1008.4 |
| 20260906162558 | 79 | 241 | 4.0 | 10.0 | 0.00 | 0.00 | 0.00 | 39 | 1008.3 |
| 20260906162100 | 79 | 236 | 3.0 | 11.0 | 0.00 | 0.00 | 0.00 | 39 | 1008.1 |
| 20260906161607 | 79 | 203 | 2.0 | 11.0 | 0.00 | 0.00 | 0.00 | 39 | 1008.0 |
| 20260906161057 | 80 | 271 | 3.0 | 14.0 | 0.00 | 0.00 | 0.00 | 39 | 1008.0 |
| 20260906160558 | 80 | 205 | 5.0 | 14.0 | 0.00 | 0.00 | 0.00 | 39 | 1008.0 |
| 20260906160058 | 80 | 238 | 4.0 | 11.0 | 0.00 | 0.00 | 0.00 | 39 | 1008.1 |
| 20260906155557 | 80 | 237 | 5.0 | 14.0 | 0.00 | 0.00 | 0.00 | 39 | 1007.9 |
| 20260906155100 | 80 | 225 | 4.0 | 14.0 | 0.00 | 0.00 | 0.00 | 39 | 1008.0 |
| 20260906154556 | 80 | 234 | 4.0 | 10.0 | 0.00 | 0.00 | 0.00 | 40 | 1008.0 |
| 20260906154056 | 80 | 192 | 2.0 | 11.0 | 0.00 | 0.00 | 0.00 | 40 | 1008.2 |
| 20260906153555 | 80 | 225 | 5.0 | 11.0 | 0.00 | 0.00 | 0.00 | 40 | 1008.2 |
| 20260906153055 | 80 | 232 | 2.0 | 10.0 | 0.00 | 0.00 | 0.00 | 41 | 1008.0 |
| 20260906152553 | 80 | 243 | 4.0 | 10.0 | 0.00 | 0.00 | 0.00 | 40 | 1007.9 |
| 20260906152053 | 80 | 217 | 4.0 | 9.0 | 0.00 | 0.00 | 0.00 | 41 | 1008.0 |
| 20260906151553 | 81 | 246 | 5.0 | 10.0 | 0.00 | 0.00 | 0.00 | 40 | 1007.9 |
| 20260906151052 | 81 | 227 | 4.0 | 9.0 | 0.00 | 0.00 | 0.00 | 40 | 1007.9 |
| 20260906150551 | 81 | 263 | 5.0 | 10.0 | 0.00 | 0.00 | 0.00 | 40 | 1007.8 |
| 20260906150052 | 81 | 202 | 5.0 | 10.0 | 0.00 | 0.00 | 0.00 | 40 | 1007.8 |
| 20260906145550 | 81 | 212 | 4.0 | 14.0 | 0.00 | 0.00 | 0.00 | 40 | 1007.7 |
| 20260906145050 | 80 | 227 | 5.0 | 13.0 | 0.00 | 0.00 | 0.00 | 40 | 1007.7 |
| 20260906144550 | 80 | 205 | 5.0 | 13.0 | 0.00 | 0.00 | 0.00 | 37 | 1007.6 |
| 20260906144050 | 80 | 181 | 4.0 | 10.0 | 0.00 | 0.00 | 0.00 | 38 | 1007.6 |
| 20260906143548 | 79 | 206 | 5.0 | 10.0 | 0.00 | 0.00 | 0.00 | 37 | 1007.5 |
| 20260906143050 | 80 | 184 | 3.0 | 10.0 | 0.00 | 0.00 | 0.00 | 37 | 1007.4 |
| 20260906142547 | 80 | 186 | 5.0 | 10.0 | 0.00 | 0.00 | 0.00 | 38 | 1007.3 |
| 20260906142046 | 80 | 187 | 3.0 | 10.0 | 0.00 | 0.00 | 0.00 | 38 | 1007.4 |
| 20260906141547 | 80 | 213 | 4.0 | 9.0 | 0.00 | 0.00 | 0.00 | 38 | 1007.4 |
| 20260906141046 | 80 | 198 | 3.0 | 8.0 | 0.00 | 0.00 | 0.00 | 38 | 1007.2 |
| 20260906140547 | 80 | 216 | 2.0 | 8.0 | 0.00 | 0.00 | 0.00 | 37 | 1007.2 |
| 20260906140059 | 80 | 168 | 3.0 | 8.0 | 0.00 | 0.00 | 0.00 | 37 | 1007.2 |
| 20260906135646 | 80 | 214 | 3.0 | 8.0 | 0.00 | 0.00 | 0.00 | 37 | 1007.1 |
| 20260906135051 | 80 | 238 | 3.0 | 10.0 | 0.00 | 0.00 | 0.00 | 37 | 1007.1 |
| 20260906134555 | 80 | 240 | 3.0 | 10.0 | 0.00 | 0.00 | 0.00 | 37 | 1006.9 |
| 20260906134045 | 80 | 253 | 2.0 | 11.0 | 0.00 | 0.00 | 0.00 | 37 | 1006.9 |
| 20260906133544 | 80 | 264 | 2.0 | 11.0 | 0.00 | 0.00 | 0.00 | 37 | 1006.8 |
| 20260906133044 | 80 | 247 | 2.0 | 10.0 | 0.00 | 0.00 | 0.00 | 37 | 1006.9 |
| 20260906132547 | 80 | 252 | 2.0 | 9.0 | 0.00 | 0.00 | 0.00 | 37 | 1006.8 |
| 20260906132043 | 80 | 245 | 2.0 | 7.0 | 0.00 | 0.00 | 0.00 | 37 | 1006.8 |
| 20260906131544 | 80 | 252 | 1.0 | 9.0 | 0.00 | 0.00 | 0.00 | 37 | 1006.9 |
| 20260906131043 | 80 | 256 | 3.0 | 11.0 | 0.00 | 0.00 | 0.00 | 37 | 1006.8 |
| 20260906130546 | 80 | 259 | 4.0 | 11.0 | 0.00 | 0.00 | 0.00 | 37 | 1006.7 |
| 20260906130047 | 80 | 217 | 3.0 | 8.0 | 0.00 | 0.00 | 0.00 | 36 | 1006.8 |
| 20260906125545 | 80 | 223 | 3.0 | 9.0 | 0.00 | 0.00 | 0.00 | 36 | 1006.7 |
| 20260906125043 | 80 | 238 | 3.0 | 8.0 | 0.00 | 0.00 | 0.00 | 35 | 1006.6 |
| 20260906124543 | 80 | 244 | 2.0 | 7.0 | 0.00 | 0.00 | 0.00 | 34 | 1006.6 |
| 20260906124044 | 80 | 255 | 2.0 | 6.0 | 0.00 | 0.00 | 0.00 | 34 | 1006.7 |
| 20260906123540 | 80 | 225 | 2.0 | 8.0 | 0.00 | 0.00 | 0.00 | 34 | 1006.8 |
| 20260906123038 | 80 | 234 | 2.0 | 8.0 | 0.00 | 0.00 | 0.00 | 34 | 1006.8 |
| 20260906122538 | 80 | 231 | 2.0 | 5.0 | 0.00 | 0.00 | 0.00 | 34 | 1006.8 |
| 20260906122038 | 80 | 236 | 0.0 | 6.0 | 0.00 | 0.00 | 0.00 | 34 | 1006.8 |
| 20260906121538 | 80 | 225 | 1.0 | 6.0 | 0.00 | 0.00 | 0.00 | 34 | 1006.9 |
| 20260906121037 | 80 | 234 | 2.0 | 7.0 | 0.00 | 0.00 | 0.00 | 34 | 1006.9 |
| 20260906120538 | 80 | 247 | 2.0 | 5.0 | 0.00 | 0.00 | 0.00 | 34 | 1006.9 |
| 20260906120037 | 80 | 240 | 2.0 | 5.0 | 0.00 | 0.00 | 0.00 | 34 | 1006.9 |
| 20260906115536 | 80 | 230 | 2.0 | 5.0 | 0.00 | 0.00 | 0.00 | 35 | 1007.1 |
| 20260906115037 | 80 | 225 | 2.0 | 5.0 | 0.00 | 0.00 | 0.00 | 35 | 1007.0 |
| 20260906114544 | 80 | 234 | 1.0 | 5.0 | 0.00 | 0.00 | 0.00 | 35 | 1006.9 |
| 20260906114036 | 80 | 245 | 1.0 | 5.0 | 0.00 | 0.00 | 0.00 | 35 | 1006.9 |
| 20260906113536 | 80 | 259 | 1.0 | 7.0 | 0.00 | 0.00 | 0.00 | 35 | 1006.9 |
| 20260906113036 | 80 | 250 | 2.0 | 7.0 | 0.00 | 0.00 | 0.00 | 35 | 1007.0 |
| 20260906112535 | 80 | 262 | 2.0 | 7.0 | 0.00 | 0.00 | 0.00 | 35 | 1006.9 |
| 20260906112036 | 80 | 252 | 2.0 | 7.0 | 0.00 | 0.00 | 0.00 | 36 | 1006.9 |
| 20260906111535 | 80 | 257 | 2.0 | 9.0 | 0.00 | 0.00 | 0.00 | 36 | 1006.9 |
| 20260906111034 | 80 | 268 | 2.0 | 9.0 | 0.00 | 0.00 | 0.00 | 36 | 1006.9 |
| 20260906110534 | 80 | 254 | 2.0 | 8.0 | 0.00 | 0.00 | 0.00 | 36 | 1007.0 |
| 20260906110034 | 80 | 264 | 2.0 | 9.0 | 0.00 | 0.00 | 0.00 | 36 | 1007.0 |
| 20260906105533 | 80 | 262 | 2.0 | 8.0 | 0.00 | 0.00 | 0.00 | 36 | 1007.0 |
| 20260906105036 | 79 | 254 | 2.0 | 7.0 | 0.00 | 0.00 | 0.00 | 36 | 1006.9 |
| 20260906104533 | 79 | 254 | 1.0 | 7.0 | 0.00 | 0.00 | 0.00 | 36 | 1007.0 |
| 20260906104033 | 79 | 240 | 2.0 | 7.0 | 0.00 | 0.00 | 0.00 | 36 | 1007.0 |
| 20260906103532 | 79 | 243 | 2.0 | 6.0 | 0.00 | 0.00 | 0.00 | 37 | 1006.9 |
| 20260906103031 | 78 | 227 | 0.0 | 7.0 | 0.00 | 0.00 | 0.00 | 37 | 1006.9 |
| 20260906102531 | 78 | 217 | 1.0 | 7.0 | 0.00 | 0.00 | 0.00 | 37 | 1007.0 |
| 20260906102031 | 78 | 251 | 1.0 | 3.0 | 0.00 | 0.00 | 0.00 | 36 | 1007.2 |
| 20260906101531 | 78 | 251 | 0.0 | 2.0 | 0.00 | 0.00 | 0.00 | 35 | 1007.2 |
| 20260906101033 | 78 | 251 | 0.0 | 2.0 | 0.00 | 0.00 | 0.00 | 34 | 1007.1 |
| 20260906100530 | 78 | 251 | 0.0 | 2.0 | 0.00 | 0.00 | 0.00 | 34 | 1007.2 |
| 20260906100032 | 78 | 251 | 0.0 | 4.0 | 0.00 | 0.00 | 0.00 | 34 | 1007.1 |
| 20260906095528 | 78 | 251 | 1.0 | 4.0 | 0.00 | 0.00 | 0.00 | 34 | 1007.1 |
| 20260906095028 | 78 | 250 | 0.0 | 3.0 | 0.00 | 0.00 | 0.00 | 32 | 1007.1 |
| 20260906094528 | 78 | 250 | 0.0 | 3.0 | 0.00 | 0.00 | 0.00 | 30 | 1007.1 |
| 20260906094029 | 78 | 250 | 0.0 | 3.0 | 0.00 | 0.00 | 0.00 | 30 | 1007.1 |
| 20260906093525 | 78 | 250 | 0.0 | 4.0 | 0.00 | 0.00 | 0.00 | 29 | 1007.1 |
| 20260906093024 | 78 | 250 | 0.0 | 4.0 | 0.00 | 0.00 | 0.00 | 28 | 1007.1 |
| 20260906092523 | 78 | 250 | 1.0 | 3.0 | 0.00 | 0.00 | 0.00 | 28 | 1007.2 |
| 20260906092022 | 78 | 250 | 0.0 | 4.0 | 0.00 | 0.00 | 0.00 | 28 | 1007.2 |
| 20260906091531 | 78 | 250 | 1.0 | 5.0 | 0.00 | 0.00 | 0.00 | 27 | 1007.2 |
| 20260906091022 | 78 | 252 | 2.0 | 6.0 | 0.00 | 0.00 | 0.00 | 27 | 1007.2 |
| 20260906090522 | 78 | 259 | 0.0 | 3.0 | 0.00 | 0.00 | 0.00 | 27 | 1007.3 |
| 20260906090022 | 79 | 259 | 0.0 | 6.0 | 0.00 | 0.00 | 0.00 | 26 | 1007.1 |
| 20260906085521 | 79 | 259 | 1.0 | 6.0 | 0.00 | 0.00 | 0.00 | 26 | 1007.1 |
| 20260906085021 | 79 | 261 | 0.0 | 6.0 | 0.00 | 0.00 | 0.00 | 25 | 1007.1 |
| 20260906084524 | 79 | 261 | 1.0 | 6.0 | 0.00 | 0.00 | 0.00 | 25 | 1007.1 |
| 20260906084020 | 79 | 261 | 1.0 | 6.0 | 0.00 | 0.00 | 0.00 | 24 | 1007.1 |
| 20260906083521 | 79 | 259 | 1.0 | 6.0 | 0.00 | 0.00 | 0.00 | 24 | 1007.1 |
| 20260906083020 | 79 | 258 | 1.0 | 6.0 | 0.00 | 0.00 | 0.00 | 24 | 1007.1 |
| 20260906082518 | 79 | 256 | 1.0 | 5.0 | 0.00 | 0.00 | 0.00 | 24 | 1007.2 |
| 20260906082018 | 79 | 248 | 1.0 | 4.0 | 0.00 | 0.00 | 0.00 | 24 | 1007.2 |
| 20260906081517 | 79 | 240 | 0.0 | 4.0 | 0.00 | 0.00 | 0.00 | 24 | 1007.3 |
| 20260906081017 | 79 | 230 | 1.0 | 5.0 | 0.00 | 0.00 | 0.00 | 24 | 1007.3 |
| 20260906080519 | 79 | 226 | 2.0 | 5.0 | 0.00 | 0.00 | 0.00 | 23 | 1007.3 |
| 20260906080016 | 79 | 229 | 2.0 | 5.0 | 0.00 | 0.00 | 0.00 | 23 | 1007.3 |
| 20260906075515 | 80 | 227 | 2.0 | 5.0 | 0.00 | 0.00 | 0.00 | 23 | 1007.3 |
| 20260906075018 | 80 | 229 | 1.0 | 3.0 | 0.00 | 0.00 | 0.00 | 23 | 1007.2 |
| 20260906074515 | 80 | 229 | 1.0 | 4.0 | 0.00 | 0.00 | 0.00 | 22 | 1007.3 |
| 20260906074016 | 80 | 229 | 1.0 | 4.0 | 0.00 | 0.00 | 0.00 | 22 | 1007.5 |
| 20260906073512 | 80 | 230 | 1.0 | 7.0 | 0.00 | 0.00 | 0.00 | 22 | 1007.4 |
| 20260906073011 | 80 | 230 | 1.0 | 4.0 | 0.00 | 0.00 | 0.00 | 22 | 1007.5 |
| 20260906072510 | 81 | 229 | 1.0 | 5.0 | 0.00 | 0.00 | 0.00 | 22 | 1007.5 |
| 20260906072010 | 81 | 229 | 2.0 | 5.0 | 0.00 | 0.00 | 0.00 | 22 | 1007.3 |
| 20260906071509 | 81 | 234 | 1.0 | 5.0 | 0.00 | 0.00 | 0.00 | 23 | 1007.3 |
| 20260906071009 | 81 | 232 | 2.0 | 5.0 | 0.00 | 0.00 | 0.00 | 24 | 1007.3 |
| 20260906070508 | 81 | 229 | 2.0 | 8.0 | 0.00 | 0.00 | 0.00 | 24 | 1007.4 |
| 20260906070008 | 81 | 242 | 2.0 | 8.0 | 0.00 | 0.00 | 0.00 | 24 | 1007.3 |
| 20260906065507 | 81 | 229 | 1.0 | 5.0 | 0.00 | 0.00 | 0.00 | 24 | 1007.4 |
| 20260906065008 | 81 | 227 | 1.0 | 5.0 | 0.00 | 0.00 | 0.00 | 24 | 1007.2 |
| 20260906064515 | 81 | 230 | 1.0 | 5.0 | 0.00 | 0.00 | 0.00 | 24 | 1007.3 |
| 20260906064006 | 81 | 213 | 2.0 | 5.0 | 0.00 | 0.00 | 0.00 | 24 | 1007.3 |
| 20260906063505 | 82 | 223 | 1.0 | 4.0 | 0.00 | 0.00 | 0.00 | 24 | 1007.3 |
| 20260906063007 | 82 | 234 | 1.0 | 4.0 | 0.00 | 0.00 | 0.00 | 24 | 1007.3 |
| 20260906062505 | 82 | 221 | 0.0 | 4.0 | 0.00 | 0.00 | 0.00 | 24 | 1007.2 |
| 20260906062007 | 82 | 227 | 1.0 | 6.0 | 0.00 | 0.00 | 0.00 | 23 | 1007.2 |
| 20260906061506 | 82 | 226 | 2.0 | 6.0 | 0.00 | 0.00 | 0.00 | 23 | 1007.3 |
| 20260906061006 | 82 | 228 | 1.0 | 7.0 | 0.00 | 0.00 | 0.00 | 23 | 1007.3 |
| 20260906060505 | 82 | 235 | 3.0 | 7.0 | 0.00 | 0.00 | 0.00 | 23 | 1007.3 |
| 20260906060005 | 82 | 222 | 2.0 | 7.0 | 0.00 | 0.00 | 0.00 | 23 | 1007.3 |
| 20260906055505 | 82 | 229 | 2.0 | 8.0 | 0.00 | 0.00 | 0.00 | 23 | 1007.3 |
| 20260906055006 | 82 | 222 | 1.0 | 8.0 | 0.00 | 0.00 | 0.00 | 23 | 1007.4 |
| 20260906054504 | 82 | 221 | 1.0 | 5.0 | 0.00 | 0.00 | 0.00 | 23 | 1007.5 |
| 20260906054004 | 82 | 218 | 1.0 | 5.0 | 0.00 | 0.00 | 0.00 | 24 | 1007.5 |
| 20260906053506 | 82 | 223 | 1.0 | 3.0 | 0.00 | 0.00 | 0.00 | 24 | 1007.5 |
| 20260906053004 | 82 | 223 | 0.0 | 4.0 | 0.00 | 0.00 | 0.00 | 23 | 1007.5 |
| 20260906052503 | 82 | 223 | 0.0 | 4.0 | 0.00 | 0.00 | 0.00 | 23 | 1007.6 |
| 20260906052004 | 82 | 224 | 1.0 | 4.0 | 0.00 | 0.00 | 0.00 | 23 | 1007.6 |
| 20260906051503 | 82 | 223 | 1.0 | 3.0 | 0.00 | 0.00 | 0.00 | 23 | 1007.6 |
| 20260906051003 | 82 | 223 | 0.0 | 5.0 | 0.00 | 0.00 | 0.00 | 23 | 1007.6 |
| 20260906050503 | 82 | 223 | 1.0 | 5.0 | 0.00 | 0.00 | 0.00 | 23 | 1007.6 |
| 20260906050011 | 82 | 230 | 2.0 | 5.0 | 0.00 | 0.00 | 0.00 | 23 | 1007.6 |
| 20260906045507 | 82 | 223 | 0.0 | 3.0 | 0.00 | 0.00 | 0.00 | 23 | 1007.6 |
| 20260906045005 | 82 | 223 | 0.0 | 4.0 | 0.00 | 0.00 | 0.00 | 23 | 1007.6 |
| 20260906044504 | 82 | 223 | 1.0 | 4.0 | 0.00 | 0.00 | 0.00 | 23 | 1007.6 |
| 20260906044007 | 82 | 221 | 1.0 | 4.0 | 0.00 | 0.00 | 0.00 | 23 | 1007.6 |
| 20260906043502 | 83 | 222 | 0.0 | 5.0 | 0.00 | 0.00 | 0.00 | 23 | 1007.7 |
| 20260906043003 | 83 | 222 | 0.0 | 5.0 | 0.00 | 0.00 | 0.00 | 23 | 1007.7 |
| 20260906042501 | 83 | 227 | 2.0 | 7.0 | 0.00 | 0.00 | 0.00 | 23 | 1007.8 |
| 20260906042002 | 83 | 213 | 2.0 | 7.0 | 0.00 | 0.00 | 0.00 | 22 | 1007.7 |
| 20260906041503 | 83 | 221 | 1.0 | 4.0 | 0.00 | 0.00 | 0.00 | 22 | 1007.7 |
| 20260906041001 | 83 | 215 | 1.0 | 4.0 | 0.00 | 0.00 | 0.00 | 22 | 1007.6 |
| 20260906040502 | 83 | 216 | 1.0 | 5.0 | 0.00 | 0.00 | 0.00 | 22 | 1007.7 |
| 20260906040002 | 83 | 232 | 1.0 | 5.0 | 0.00 | 0.00 | 0.00 | 22 | 1007.5 |
| 20260906035501 | 84 | 223 | 2.0 | 8.0 | 0.00 | 0.00 | 0.00 | 22 | 1007.5 |
| 20260906035002 | 84 | 227 | 2.0 | 8.0 | 0.00 | 0.00 | 0.00 | 22 | 1007.4 |
| 20260906034502 | 84 | 209 | 4.0 | 8.0 | 0.00 | 0.00 | 0.00 | 22 | 1007.3 |
| 20260906034001 | 84 | 219 | 1.0 | 8.0 | 0.00 | 0.00 | 0.00 | 21 | 1007.3 |
| 20260906033600 | 84 | 219 | 1.0 | 8.0 | 0.00 | 0.00 | 0.00 | 21 | 1007.2 |
| 20260906033103 | 84 | 213 | 3.0 | 8.0 | 0.00 | 0.00 | 0.00 | 21 | 1007.2 |
| 20260906032600 | 84 | 216 | 2.0 | 7.0 | 0.00 | 0.00 | 0.00 | 21 | 1007.2 |
| 20260906032100 | 84 | 208 | 2.0 | 7.0 | 0.00 | 0.00 | 0.00 | 21 | 1007.1 |
| 20260906031625 | 84 | 205 | 3.0 | 8.0 | 0.00 | 0.00 | 0.00 | 21 | 1007.0 |
| 20260906031100 | 84 | 229 | 2.0 | 10.0 | 0.00 | 0.00 | 0.00 | 21 | 1007.0 |
| 20260906030600 | 84 | 216 | 3.0 | 10.0 | 0.00 | 0.00 | 0.00 | 21 | 1006.9 |
| 20260906030100 | 84 | 219 | 3.0 | 10.0 | 0.00 | 0.00 | 0.00 | 21 | 1006.9 |
| 20260906025559 | 84 | 215 | 4.0 | 10.0 | 0.00 | 0.00 | 0.00 | 21 | 1006.8 |
| 20260906025100 | 85 | 220 | 2.0 | 10.0 | 0.00 | 0.00 | 0.00 | 21 | 1006.8 |
| 20260906024604 | 85 | 211 | 4.0 | 15.0 | 0.00 | 0.00 | 0.00 | 21 | 1006.7 |
| 20260906024101 | 85 | 204 | 4.0 | 11.0 | 0.00 | 0.00 | 0.00 | 20 | 1006.7 |
| 20260906023601 | 85 | 238 | 3.0 | 13.0 | 0.00 | 0.00 | 0.00 | 20 | 1006.7 |
| 20260906023111 | 85 | 210 | 4.0 | 13.0 | 0.00 | 0.00 | 0.00 | 20 | 1006.6 |
| 20260906022602 | 85 | 198 | 4.0 | 10.0 | 0.00 | 0.00 | 0.00 | 20 | 1006.6 |
| 20260906022059 | 85 | 207 | 4.0 | 10.0 | 0.00 | 0.00 | 0.00 | 20 | 1006.6 |
| 20260906021600 | 85 | 207 | 3.0 | 10.0 | 0.00 | 0.00 | 0.00 | 20 | 1006.5 |
| 20260906021058 | 85 | 171 | 3.0 | 11.0 | 0.00 | 0.00 | 0.00 | 20 | 1006.6 |
| 20260906020559 | 85 | 194 | 2.0 | 11.0 | 0.00 | 0.00 | 0.00 | 20 | 1006.6 |
| 20260906020101 | 86 | 175 | 4.0 | 16.0 | 0.00 | 0.00 | 0.00 | 19 | 1006.6 |
| 20260906015557 | 86 | 183 | 6.0 | 11.0 | 0.00 | 0.00 | 0.00 | 19 | 1006.6 |
| 20260906015058 | 86 | 223 | 2.0 | 9.0 | 0.00 | 0.00 | 0.00 | 19 | 1006.6 |
| 20260906014558 | 86 | 196 | 2.0 | 11.0 | 0.00 | 0.00 | 0.00 | 19 | 1006.7 |
| 20260906014057 | 86 | 217 | 4.0 | 11.0 | 0.00 | 0.00 | 0.00 | 19 | 1006.7 |
| 20260906013557 | 86 | 194 | 4.0 | 11.0 | 0.00 | 0.00 | 0.00 | 19 | 1006.7 |
| 20260906013057 | 87 | 173 | 5.0 | 10.0 | 0.00 | 0.00 | 0.00 | 19 | 1006.7 |
| 20260906012556 | 87 | 198 | 6.0 | 11.0 | 0.00 | 0.00 | 0.00 | 18 | 1006.7 |
| 20260906012157 | 87 | 165 | 4.0 | 11.0 | 0.00 | 0.00 | 0.00 | 18 | 1006.7 |
| 20260906011604 | 88 | 209 | 3.0 | 8.0 | 0.00 | 0.00 | 0.00 | 17 | 1006.8 |
| 20260906011057 | 88 | 199 | 3.0 | 8.0 | 0.00 | 0.00 | 0.00 | 17 | 1006.7 |
| 20260906010555 | 88 | 201 | 4.0 | 12.0 | 0.00 | 0.00 | 0.00 | 17 | 1006.8 |
| 20260906010056 | 88 | 200 | 5.0 | 12.0 | 0.00 | 0.00 | 0.00 | 17 | 1006.7 |
| 20260906005556 | 88 | 202 | 3.0 | 13.0 | 0.00 | 0.00 | 0.00 | 17 | 1006.7 |
| 20260906005056 | 88 | 211 | 7.0 | 13.0 | 0.00 | 0.00 | 0.00 | 16 | 1006.6 |
| 20260906004559 | 89 | 208 | 6.0 | 12.0 | 0.00 | 0.00 | 0.00 | 16 | 1006.6 |
| 20260906004054 | 89 | 196 | 6.0 | 14.0 | 0.00 | 0.00 | 0.00 | 16 | 1006.6 |
| 20260906003554 | 89 | 195 | 7.0 | 10.0 | 0.00 | 0.00 | 0.00 | 15 | 1006.6 |
| 20260906003055 | 90 | 204 | 6.0 | 14.0 | 0.00 | 0.00 | 0.00 | 15 | 1006.6 |
| 20260906002556 | 90 | 211 | 5.0 | 14.0 | 0.00 | 0.00 | 0.00 | 15 | 1006.6 |
| 20260906002053 | 90 | 169 | 5.0 | 13.0 | 0.00 | 0.00 | 0.00 | 14 | 1006.6 |
| 20260906001554 | 90 | 224 | 4.0 | 10.0 | 0.00 | 0.00 | 0.00 | 13 | 1006.6 |
| 20260906001054 | 91 | 189 | 3.0 | 11.0 | 0.00 | 0.00 | 0.00 | 12 | 1006.6 |
| 20260906000552 | 91 | 218 | 5.0 | 11.0 | 0.00 | 0.00 | 0.00 | 12 | 1006.6 |
| 20260906000100 | 91 | 183 | 2.0 | 8.0 | 0.00 | 0.00 | 0.00 | 11 | 1006.7 |
| 20260905235552 | 91 | 215 | 3.0 | 8.0 | 0.00 | 0.00 | 0.00 | 10 | 1006.7 |
| 20260905235052 | 91 | 210 | 3.0 | 9.0 | 0.00 | 0.00 | 0.00 | 10 | 1006.7 |
| 20260905234554 | 91 | 250 | 3.0 | 10.0 | 0.00 | 0.00 | 0.00 | 10 | 1006.7 |
| 20260905234055 | 91 | 223 | 5.0 | 10.0 | 0.00 | 0.00 | 0.00 | 11 | 1006.7 |
| 20260905233549 | 91 | 260 | 4.0 | 12.0 | 0.00 | 0.00 | 0.00 | 10 | 1006.7 |
| 20260905233053 | 90 | 184 | 3.0 | 16.0 | 0.00 | 0.00 | 0.00 | 10 | 1006.7 |
| 20260905232549 | 90 | 194 | 7.0 | 16.0 | 0.00 | 0.00 | 0.00 | 10 | 1006.6 |
| 20260905232048 | 91 | 200 | 8.0 | 16.0 | 0.00 | 0.00 | 0.00 | 10 | 1006.8 |
| 20260905231549 | 91 | 200 | 6.0 | 13.0 | 0.00 | 0.00 | 0.00 | 9 | 1006.7 |
| 20260905231047 | 91 | 200 | 6.0 | 13.0 | 0.00 | 0.00 | 0.00 | 9 | 1006.7 |
| 20260905230547 | 90 | 190 | 6.0 | 16.0 | 0.00 | 0.00 | 0.00 | 10 | 1006.7 |
| 20260905230047 | 90 | 200 | 9.0 | 19.0 | 0.00 | 0.00 | 0.00 | 9 | 1006.7 |
| 20260905225546 | 91 | 198 | 8.0 | 19.0 | 0.00 | 0.00 | 0.00 | 9 | 1006.8 |
| 20260905225046 | 91 | 211 | 5.0 | 17.0 | 0.00 | 0.00 | 0.00 | 9 | 1006.8 |
| 20260905224547 | 90 | 196 | 8.0 | 23.0 | 0.00 | 0.00 | 0.00 | 9 | 1006.8 |
| 20260905224045 | 90 | 200 | 5.0 | 15.0 | 0.00 | 0.00 | 0.00 | 9 | 1006.8 |
| 20260905223544 | 90 | 194 | 7.0 | 19.0 | 0.00 | 0.00 | 0.00 | 9 | 1006.9 |
| 20260905223043 | 90 | 171 | 9.0 | 20.0 | 0.00 | 0.00 | 0.00 | 9 | 1007.0 |
| 20260905222543 | 90 | 182 | 9.0 | 18.0 | 0.00 | 0.00 | 0.00 | 9 | 1007.0 |
| 20260905222043 | 90 | 196 | 8.0 | 18.0 | 0.00 | 0.00 | 0.00 | 9 | 1007.1 |
| 20260905221558 | 90 | 262 | 7.0 | 12.0 | 0.00 | 0.00 | 0.00 | 9 | 1007.2 |
| 20260905221042 | 90 | 212 | 6.0 | 20.0 | 0.00 | 0.00 | 0.00 | 8 | 1007.2 |
| 20260905220541 | 90 | 194 | 6.0 | 20.0 | 0.00 | 0.00 | 0.00 | 8 | 1007.3 |